Other Public Products
Issued by NWS Grand Forks, ND

Home | Current Version | Previous Version | Graphics & Text | Print | Product List | Glossary Off
Versions: 1 2 3 4 5 6 7 8 9 10 11 12 13 14 15 16 17 18 19 20 21 22 23 24 25 26 27 28 29 30 31 32 33 34 35 36 37 38 39 40 41 42 43 44 45 46 47 48 49 50

000
FPUS83 KFGF 221331
OPUFGF
PRAIRIE TO PINES WEATHER ROUNDUP
NATIONAL WEATHER SERVICE EASTERN NORTH DAKOTA/GRAND FORKS ND
800 AM CDT TUE JUL 22 2014

 **SATELLITE DATA USED TO AUGMENT SKY COVER AT AUTOMATED STATIONS**
 *****  WEATHER ACROSS EASTERN NORTH DAKOTA  *****

CITY           SKY/WX    TMP DP  RH WIND       PRES   REMARKS
GRAND FORKS    SUNNY     65  60  84 NW10      30.04R
GRAND FORKS AF SUNNY     65  63  92 NW9       30.06R
GRAND CITY NWS   N/A     66 N/A N/A VRB3        N/A
BUXTON           N/A     66  64  94 NW12        N/A
DEVILS LAKE    SUNNY     64  57  77 N8        30.10R
FARGO          SUNNY     67  61  81 NW13      30.04R
WAHPETON ARPT  MOSUNNY   66  59  77 N13       30.06R
$$

 *****  WEATHER ACROSS CENTRAL AND WESTERN NORTH DAKOTA  *****

CITY           SKY/WX    TMP DP  RH WIND       PRES   REMARKS
JAMESTOWN      SUNNY     66  61  84 NW10      30.10R
BISMARCK       CLOUDY    69  64  84 CALM      30.16R
MINOT          SUNNY     63  59  87 VRB6      30.12R
MINOT AFB      SUNNY     64  63  99 N6        30.12R
GARRISON         N/A     61  60  97 NW3       30.15R
WILLISTON      MOSUNNY   63  59  87 CALM      30.15R
DICKINSON      MOSUNNY   60  59  96 CALM      30.17R FOG
HETTINGER      MOSUNNY   59  57  93 CALM      30.19R FOG
$$

 *****  OTHER OBSERVATIONS NORTHEAST NORTH DAKOTA  *****

CITY           SKY/WX    TMP DP  RH WIND       PRES   REMARKS
WALHALLA         N/A     64  63  94 NW9         N/A
LANGDON        FAIR      63  59  88 N6        30.10R
CAVALIER       FAIR      64  57  77 N10       30.06R
GRAFTON        FAIR      64  59  82 NW10      30.06R
CANDO          FAIR      64  59  82 N9        30.12R
FORT TOTTEN    NOT AVBL
ROLLA          FAIR      64  64 100 N9        30.14R
RUGBY          FOG       59  59 100 W3        30.12R VSB<1/4
 ***** THE ABOVE OBSERVATIONS ARE NON NWS ARE NOT QUALITY
        CONTROLLED AND MAY MIS-REPORT RAIN FOR SNOW...
$$

 *****  OTHER OBSERVATIONS SOUTHEAST NORTH DAKOTA *****

CITY           SKY/WX    TMP DP  RH WIND       PRES   REMARKS
COOPERSTOWN    NOT AVBL
VALLEY CITY    FAIR      66  66 100 N14       30.10R
OAKES          NOT AVBL
GWINNER        SUNNY     68  66  94 NW14      30.10R
SHEYENNE NWR     N/A     68  63  83 N8        29.95
BUFFALO        NOT AVBL
WYNDMERE       NOT AVBL
 ***** THE ABOVE OBSERVATIONS ARE NON NWS ARE NOT QUALITY
       CONTROLLED AND MAY MIS-REPORT RAIN FOR SNOW...
$$

  *****  WEATHER ACROSS NORTHERN MINNESOTA  *****

CITY           SKY/WX    TMP DP  RH WIND       PRES   REMARKS
FLAG ISLAND    MOSUNNY   64  55  72 NW17      29.96R
WARROAD        MOSUNNY   61  57  88 NW10      29.99R
ROSEAU         SUNNY     61  55  82 NW12      30.01R
HALLOCK        SUNNY     64  57  77 N9        30.03R
THF RVR FALLS  MOSUNNY   64  59  82 NW12      30.03R
HALSTAD        NOT AVBL
FOSSTON        MOSUNNY   63  59  88 NW10      30.04R
BAUDETTE       PTSUNNY   63  57  81 N14       29.96R
WASKISH        PTSUNNY   63  61  94 NW12G17   29.97R
CROOKSTON      NOT AVBL
$$
  *****  WEATHER ACROSS CENTRAL AND WEST MINNESOTA  *****

CITY           SKY/WX    TMP DP  RH WIND       PRES   REMARKS
BEMIDJI        CLOUDY    63  60  89 NW15      29.99R
PARK RAPIDS    CLOUDY    65  61  87 NW15G22   30.00R
WADENA         DRIZZLE   64  63  94 NW10      30.00R
DETROIT LAKES  CLOUDY    63  61  94 N14       30.05R
MOORHEAD       SUNNY     66  64  94 N14G20    30.06R
FERGUS FALLS   MOSUNNY   66  61  82 N15       30.04R
ELBOW LAKE     CLOUDY    65  62  91 NW13G26   30.04R
MORRIS MN      PTSUNNY   66  64  94 NW13G21   30.03R
STAPLES        CLOUDY    66  63  88 NW13      29.98S
WHEATON        CLOUDY    64  61  88 NW12G22   30.08R
$$
  *****  WEATHER ELSEWHERE ACROSS MINNESOTA  *****

CITY           SKY/WX    TMP DP  RH WIND       PRES   REMARKS
DULUTH         CLOUDY    69  63  81 NW17G29   29.83R
INTRNTL FALLS  CLOUDY    64  61  90 NW17G25   29.89R
ELY            CLOUDY    66  64  94 NW14G21   29.80R
CLOQUET        CLOUDY    70  63  78 W18G26    29.88R
BRAINERD       PTSUNNY   66  62  87 NW14G23   29.96R
HIBBING        CLOUDY    68  63  84 NW17G29   29.86R
ALEXANDRIA     CLOUDY    67  64  90 NW14G21   30.03R
SAINT CLOUD    SUNNY     73  63  70 NW18      29.96R
MINNEAPOLIS    MOSUNNY   74  65  73 W12       29.93R
$$

  *****  WEATHER ACROSS SOUTH DAKOTA  *****

CITY           SKY/WX    TMP DP  RH WIND       PRES   REMARKS
SIOUX FALLS    CLOUDY    71  65  81 N8        30.00R
BROOKINGS      NOT AVBL
WATERTOWN      PTSUNNY   68  63  84 N14       30.06S
HURON          MOSUNNY   67  63  87 N15       30.07R
SISSETON         N/A     68  65  90 N15       30.04R
ABERDEEN       SUNNY     66  63  90 N14       30.09R
MITCHELL       PTSUNNY   69  66  90 W16G25    30.06R
PIERRE         CLOUDY    66  63  90 NW13      30.15R
MOBRIDGE       CLOUDY    65  62  90 N7        30.14R
RAPID CITY     MOSUNNY   67  64  90 N5        30.20R
$$

  *****  SOME WEATHER IN NEARBY STATES *****

CITY           SKY/WX    TMP DP  RH WIND       PRES   REMARKS
GLASGOW MT     SUNNY     59  54  83 N3        30.14R
GREAT FALLS MT CLOUDY    57  51  80 W3        30.15S
CHEYENNE WY    SUNNY     62  53  72 N7        30.37R
SCOTTSBLUFF NE MOSUNNY   69  60  73 N7        30.23R
OMAHA NE       PTSUNNY   83  70  64 W7        29.97R
DES MOINES IA  CLOUDY    80  74  81 SW10      29.93S
DAVENPORT IA   PTSUNNY   76  68  76 S14       29.98S
CHICAGO IL     MOSUNNY   76  62  62 S12       30.02F
EAU CLAIRE WI  SUNNY     81  75  82 SW10      29.86R
LA CROSSE WI   CLOUDY    79  70  74 E3        29.89R
$$

  *****  SOME NATIONAL WEATHER *****

CITY           SKY/WX    TMP DP  RH WIND       PRES   REMARKS
LA GUARDIA NY  MOSUNNY   79  64  60 CALM      30.17S
RALEIGH NC     CLOUDY    75  70  84 E5        30.18S HAZE
ATLANTA GA     CLOUDY    73  70  90 E5        30.16R
NEW ORLEANS LA PTSUNNY   82  76  81 CALM      30.03R
OKLAHOMA CITY  PTSUNNY   76  72  87 S7        30.10R FOG
ALBUQUERQUE NM MOCLDY    78  50  37 NE3       30.27R
SALT LAKE CITY MOCLDY    66  46  48 S5        30.18R
LOS ANGELES CA PTCLDY    66  62  87 SE5       30.02S
BOISE ID       CLEAR     68  54  60 SE9       30.10R
SEATTLE WA     MOCLDY    56  53  90 CALM      30.03R
$$

*** WEATHER ACROSS MANITOBA...SASKATCHEWAN AND ONTARIO ***
                ***ONTARIO***

CITY           SKY/WX    TMP DP  RH WIND       PRES   REMARKS
GERALDTON      CLOUDY   N/A N/A N/A S12         N/A
THUNDER BAY    LGT RAIN  66  64  94 SW9       29.68R
SIOUX LOOKOUT  CLOUDY    59  59 100 N10G17    29.88R
TORONTO        SUNNY     75  64  69 NW2       30.13S
BIG TROUT LK   SUNNY     52  45  76 N9        29.99R
PICKLE LAKE    CLOUDY    57  54  88 NE6       29.90R
DRYDEN         CLOUDY    59  57  94 N12       29.89R
KENORA         PTSUNNY   61  54  77 NW9       29.96R
$$
                *** MANITOBA***

CITY           SKY/WX    TMP DP  RH WIND       PRES   REMARKS
BRANDON        MOSUNNY   61  59  94 CALM      30.11R
DAUPHIN        SUNNY     61  57  88 W7        30.11R
ISLAND LAKE    PTSUNNY   54  45  71 NE7       30.08
PILOT MOUND      N/A     59  57  94 NW7         N/A
THE PAS        MOSUNNY   59  54  82 N5        30.16R
THOMPSON       MOSUNNY   52  52 100 W2        30.13R
WINNIPEG       SUNNY     63  55  77 NW7       30.06R
LYNN LAKE      SUNNY     57  52  82 NW5       30.15R
CHURCHILL      PTSUNNY   54  48  82 NW9       30.04F
GILLAM         PTSUNNY   55  50  82 NW7       30.09R
$$
                ***SASKATCHEWAN***

CITY           SKY/WX    TMP DP  RH WIND       PRES   REMARKS
ESTEVAN        PTSUNNY   63  61  94 NE2       30.15R
KINDERSLEY     MOSUNNY   55  54  94 E2        30.18R
LLOYDMINSTER   SUNNY     55  52  88 S2        30.16S
PRINCE ALBERT  PTSUNNY   54  52  94 CALM      30.17R
REGINA         SUNNY     61  57  88 NE2       30.16R



USA.gov is the U.S. government's official web portal to all federal, state and local government web resources and services.